Flag for Germany Weather past 2 weeks in Munich, Bavaria, Germany

Now
39 °F

Broken clouds.


Feels Like: 29 °F
Forecast: 35 / 40 °F
Wind: 20 mph from West

Location: Oberpfaffenhofen

Current Time: Oct 22, 2014 at 10:52:41 AM

Latest Report: Oct 22, 2014 at 10:20 AM


Visibility: N/A

Pressure: 29.98 "Hg

Humidity: 81%

Dew point: 34 °F

Location of MunichLocation

Historic Weather in Munich — Graph

°F

Munich temperature yesterday

Maximum temperature yesterday: 63 °F (at 2:20 PM)
Minimum temperature yesterday: 52 °F (at 6:20 AM)
Average temperature yesterday: 57 °F

Past Weeks' High & Low Weather Summary

 TemperatureHumidityPressure
High75 °F (Oct 9, 1:20 PM)100% (Oct 11, 7:50 AM)30.27 "Hg (Oct 11, 7:50 AM)
Low39 °F (Oct 22, 7:20 AM)36% (Oct 9, 2:20 PM)29.74 "Hg (Oct 21, 6:20 PM)
Average60 °F75%29.93 "Hg
* Reported Oct 7 9:20 AM — Oct 22 9:50 AM, Munich, Weather by CustomWeather, © 2014

Note: Actual official high and low records may vary slightly from our data, if they occured in-between our weather recording intervals... More about our weather records

Advertising

Munich weather history for previous 24 hours

 ConditionsComfort  
Time TempWeatherWind HumidityBarometerVisibility
9:50 AM
Oct 22
39 °FLight rain. Broken clouds.20 mph81%29.98 "HgN/A
9:20 AM39 °FSprinkles. Partly sunny.20 mph81%29.98 "HgN/A
8:50 AM41 °FSprinkles. Partly sunny.17 mph76%29.98 "HgN/A
8:20 AM41 °FPassing clouds.16 mph76%29.95 "HgN/A
7:50 AM39 °FPartly cloudy.15 mph81%29.95 "HgN/A
7:20 AM39 °FPassing clouds.16 mph81%29.92 "HgN/A
6:50 AM41 °FPartly cloudy.17 mph81%29.92 "HgN/A
6:50 PM
Oct 21
57 °FSunny.12 mph72%29.74 "Hg10 mi
6:20 PM59 °FPartly sunny.15 mph72%29.74 "HgN/A
5:50 PM59 °FBroken clouds.14 mph72%29.77 "HgN/A
5:20 PM59 °FBroken clouds.16 mph72%29.77 "HgN/A
4:50 PM59 °FBroken clouds.16 mph72%29.77 "HgN/A
4:20 PM61 °FScattered clouds.20 mph68%29.80 "HgN/A
3:50 PM61 °FScattered clouds.17 mph68%29.80 "HgN/A
3:20 PM61 °FPartly sunny.15 mph72%29.83 "HgN/A
2:50 PM61 °FScattered clouds.20 mph72%29.83 "HgN/A
2:20 PM63 °FScattered clouds.16 mph68%29.86 "HgN/A
1:50 PM61 °FPartly sunny.21 mph72%29.86 "HgN/A
1:20 PM61 °FScattered clouds.17 mph72%29.89 "HgN/A
12:50 PM59 °FPartly sunny.15 mph82%29.92 "HgN/A
12:20 PM59 °FPartly sunny.10 mph82%29.92 "HgN/A
11:50 AM57 °FBroken clouds.10 mph88%29.95 "HgN/A
11:20 AM55 °FSprinkles. Partly sunny.7 mph94%29.95 "HgN/A
10:50 AM55 °FPartly sunny.6 mph88%29.95 "HgN/A
10:20 AM54 °FRain showers. Partly sunny.5 mph88%29.95 "HgN/A
Weather by CustomWeather, © 2014

See weather overviewHow to use our weather pages